This demonstration page uses our WeatherBlox Daily Observations layout. Learn more.

Left ArrowRight Arrow

41.86663, -103.66717

Hourly Observations for August 17, 2018

Temp ( °F °C ) Dew Point ( °F °C ) Humidity (%) Winds ( mph kmh ) Pressure ( in mb ) Visibility ( mi km ) Precip ( " mm )
12:53 am 00:53 Clear 61 16.1 54 12.2 78 78 E 3 6 30.07 1018 10 16 0.00 0.00
1:53 am 01:53 Clear 59 15 53 11.7 81 81 E 3 6 30.07 1018 10 16 0.00 0.00
2:53 am 02:53 Clear 59 15 53 11.7 81 81 E 5 7 30.07 1018 10 16 0.00 0.00
3:53 am 03:53 Clear 58 14.4 53 11.7 84 84 S 5 7 30.08 1019 10 16 0.00 0.00
4:53 am 04:53 Clear 56 13.3 54 12.2 93 93 Calm 30.09 1019 10 16 0.00 0.00
5:53 am 05:53 Clear 56 13.3 55 12.8 97 97 Calm 30.10 1019 10 16 0.00 0.00
6:53 am 06:53 Sunny 58 14.4 55 12.8 90 90 Calm 30.11 1020 9 14 0.00 0.00
7:53 am 07:53 Sunny 65 18.3 57 13.9 76 76 Calm 30.11 1020 10 16 0.00 0.00
8:53 am 08:53 Sunny 68 20 57 13.9 68 68 ESE 6 9 30.11 1020 10 16 0.00 0.00
9:53 am 09:53 Sunny 73 22.8 60 15.6 64 64 E 5 7 30.11 1020 10 16 0.00 0.00
10:53 am 10:53 Sunny 78 25.6 62 16.7 58 58 E 8 13 30.09 1019 10 16 0.00 0.00
11:53 am 11:53 Sunny 82 27.8 61 16.1 49 49 E 12 19 30.08 1019 10 16 0.00 0.00
12:53 pm 12:53 Sunny 86 30 61 16.1 43 43 E 14 22 30.05 1018 10 16 0.00 0.00
1:53 pm 13:53 Sunny 88 31.1 62 16.7 42 42 E 15 24 30.03 1017 10 16 0.00 0.00
2:53 pm 14:53 Sunny 90 32.2 62 16.7 39 39 E 17 28 30.01 1016 10 16 0.00 0.00
3:53 pm 15:53 Sunny 91 32.8 60 15.6 35 35 SE 13 20 29.99 1016 10 16 0.00 0.00
4:53 pm 16:53 Sunny 89 31.7 63 17.2 42 42 E 13 20 29.97 1015 10 16 0.00 0.00
5:53 pm 17:53 Sunny 83 28.3 64 17.8 53 53 E 10 17 30.00 1016 10 16 0.00 0.00
6:53 pm 18:53 Sunny 80 26.7 63 17.2 56 56 E 13 20 30.00 1016 10 16 0.00 0.00
7:53 pm 19:53 Clear 79 26.1 62 16.7 56 56 ESE 12 19 29.99 1016 10 16 0.00 0.00
8:53 pm 20:53 Clear 77 25 60 15.6 56 56 SSE 10 17 30.01 1016 10 16 0.00 0.00
9:53 pm 21:53 Clear 71 21.7 61 16.1 71 71 E 7 11 30.03 1017 10 16 0.00 0.00
10:53 pm 22:53 Clear 66 18.9 61 16.1 84 84 SE 7 11 30.04 1017 10 16 0.00 0.00
11:53 pm 23:53 Clear 65 18.3 61 16.1 87 87 SE 8 13 30.04 1017 10 16 0.00 0.00

Powered by AerisWeather